Location: Colonial Hills
(40.5656°N, 77.6119°W)
Time: 03:59:58
(UTC+00:00)

X-37B - Pass Details

Date: 02 December 2020
Orbit: 383 x 391 km, 45.1° (Epoch: 22 January)

Event Time Altitude Azimuth Distance (km) Brightness Sun altitude
Rises 22:31:44 0° 267° (W) 2,255 6.1 -9.1°
Reaches altitude 10° 22:33:51 10° 275° (W) 1,404 4.6 -9.4°
Maximum altitude 22:36:53 43° 348° (NNW) 557 1.3 -10.0°
Enters shadow 22:39:11 16° 57° (ENE) 1,122 2.3 -10.4°
